Есик

Казахстан     43°21′54″N   77°27′03″E
темп.,
°C
ветер,
м/с
пор.,
м/с
влажн.,
%
обл.,
%
осадки,
мм/ч
давл.,
гПа
погр.,
м
1 марта, пн
пн100:00−7ю43420 0.0 102622
03:00−7ю44390 0.0 102523
06:00−6ю44360 0.0 102523
09:00−3ююз334938 0.0 102426
12:00−1зсз117469 0.0 1021184
15:00−2сз2276100 0.0 1020269
18:00−4юз126586 0.0 102121
21:00−5ю33434 0.0 102422
2 марта, вт
вт200:00−5ю44392 0.0 102423
03:00−6ююз34360 0.0 102422
06:00−6ю44340 0.0 102423
09:00−3ююз224455 0.0 102322
12:000ссз116137 0.0 1020311
15:000сз225831 0.0 1018566
18:00−4з116164 0.0 102021
21:00−6ююз2269100 0.0 102321
3 марта, ср
ср300:00−6ю1173100 0.1 102321
03:00−7ююз1172100 0.0 102321
06:00−7ююз1178100 0.0 102421
09:00−6ссв0186100 0.1 102475
12:00−5ссв2296100 1.2 1022178
15:00−6с2298100 1.7 1021170
18:00−7ссв1196100 3.8 102390
21:00−7юз1194100 1.1 102530
4 марта, чт
чт400:00−7ю1280100 1.3 102621
03:00−7ююз2273100 0.0 102521
06:00−7ююз1272100 0.1 102521
09:00−5ююз0175100 0.4 102484
12:00−3с228380 0.5 1021373
15:00−1ссв128464 0.4 1018312
18:00−3ююв127479 0.6 101921
21:00−4ю5551100 0.0 102041
5 марта, пт
пт500:00−3ююз3356100 0.0 102025
03:00−4зюз1170100 0.2 102023
06:00−3ююв3369100 0.7 102140
09:00−5зсз3496100 2.1 1025233
12:00−8сз3396100 6.4 1026368
15:00−8сз4499100 3.1 1027368
18:00−9зюз1288100 6.0 1029156
21:00−11ююз336954 0.1 103222